Location: Oriwa
(40.7500°S, 175.3333°E)
Time: 14:13:52
(UTC+00:00)

Cosmos 2227 Rocket - Pass Details

Date: 03 February 2023
Orbit: 839 x 844 km, 71.0° (Epoch: 31 March)

Event Time Altitude Azimuth Distance (km) Brightness Sun altitude
Rises 15:44:30 0° 198° (SSW) 3,430 5.7 -17.5°
Reaches altitude 10° 15:47:09 10° 189° (S) 2,489 5.1 -17.1°
Maximum altitude 15:52:29 39° 121° (ESE) 1,255 3.7 -16.4°
Drops below altitude 10° 15:57:45 10° 52° (NE) 2,465 4.8 -15.6°
Sets 16:00:21 0° 44° (NE) 3,393 5.4 -15.2°
